CPA349 ZSSS-VHHH

Flight info

Callsign CPA349
Flight time N/A
Altitude 36100
Route NXD71D NXD W131 AKDIM A470 BEBEM/N0494F361 A470 DOTMI V512 ABBEY
Aircraft B77W/H-SDE1E2E3FGHIJ2J3J4J5M1RWXY/LB1D1

Departure

Time 2026-05-07 14:16
Airport Shanghai Hongqiao International Airport (ZSSS)

Arrival

Time N/A
Airport Hong Kong International Airport (VHHH)
Time Latitude Longitude Altitude Speed Heading
2026-05-07 13:59 31.19818 121.34047 24 ft 0 kts 137°
2026-05-07 14:04 31.19824 121.34040 26 ft 4 kts 139°
2026-05-07 14:04 31.19846 121.34021 27 ft 4 kts 149°
2026-05-07 14:04 31.19870 121.34007 27 ft 4 kts 164°
2026-05-07 14:04 31.19895 121.34004 25 ft 4 kts 202°
2026-05-07 14:05 31.19907 121.34016 27 ft 1 kts 253°
2026-05-07 14:05 31.19908 121.34020 27 ft 0 kts 253°
2026-05-07 14:09 31.19907 121.34013 27 ft 3 kts 253°
2026-05-07 14:09 31.19895 121.33963 28 ft 10 kts 261°
2026-05-07 14:10 31.19881 121.33890 28 ft 7 kts 227°
2026-05-07 14:10 31.19827 121.33881 26 ft 9 kts 180°
2026-05-07 14:10 31.19744 121.33885 25 ft 15 kts 177°
2026-05-07 14:10 31.19618 121.33891 25 ft 21 kts 177°
2026-05-07 14:11 31.19456 121.33900 25 ft 25 kts 177°
2026-05-07 14:11 31.19281 121.33909 29 ft 25 kts 177°
2026-05-07 14:11 31.19106 121.33919 24 ft 25 kts 177°
2026-05-07 14:11 31.18930 121.33928 24 ft 25 kts 177°
2026-05-07 14:12 31.18755 121.33938 25 ft 25 kts 177°
2026-05-07 14:12 31.18601 121.33946 25 ft 14 kts 177°
2026-05-07 14:12 31.18507 121.33951 25 ft 14 kts 177°
2026-05-07 14:12 31.18417 121.33936 27 ft 14 kts 214°
2026-05-07 14:13 31.18370 121.33843 27 ft 14 kts 261°
2026-05-07 14:13 31.18363 121.33731 23 ft 14 kts 268°
2026-05-07 14:13 31.18359 121.33620 27 ft 14 kts 266°
2026-05-07 14:13 31.18354 121.33511 24 ft 14 kts 267°
2026-05-07 14:14 31.18350 121.33402 24 ft 9 kts 268°
2026-05-07 14:14 31.18363 121.33331 26 ft 9 kts 323°
2026-05-07 14:14 31.18429 121.33321 28 ft 10 kts 357°
2026-05-07 14:14 31.18496 121.33318 28 ft 10 kts 357°
2026-05-07 14:15 31.18699 121.33307 26 ft 60 kts 357°
2026-05-07 14:15 31.19350 121.33272 25 ft 128 kts 357°
2026-05-07 14:15 31.20427 121.33226 83 ft 175 kts 359°
2026-05-07 14:15 31.21684 121.33145 524 ft 188 kts 358°
2026-05-07 14:16 31.23025 121.33039 1131 ft 195 kts 354°
2026-05-07 14:16 31.24207 121.32247 1849 ft 211 kts 315°
2026-05-07 14:16 31.24765 121.30569 2452 ft 231 kts 290°
2026-05-07 14:16 31.25228 121.28769 3133 ft 230 kts 298°
2026-05-07 14:17 31.25880 121.27062 3904 ft 229 kts 300°
2026-05-07 14:17 31.26582 121.25480 4600 ft 219 kts 301°
2026-05-07 14:17 31.27282 121.23917 4929 ft 215 kts 292°
2026-05-07 14:17 31.27458 121.22113 4955 ft 233 kts 263°
2026-05-07 14:18 31.26874 121.20250 5167 ft 257 kts 240°
2026-05-07 14:18 31.25813 121.18510 5974 ft 261 kts 236°
2026-05-07 14:18 31.24710 121.16805 6769 ft 265 kts 235°
2026-05-07 14:18 31.23600 121.15078 7605 ft 266 kts 236°
2026-05-07 14:19 31.22469 121.13363 8395 ft 267 kts 229°
2026-05-07 14:19 31.20884 121.12149 9029 ft 283 kts 202°
2026-05-07 14:19 31.18901 121.11847 9725 ft 293 kts 181°
2026-05-07 14:19 31.17539 121.11933 10155 ft 298 kts 179°